Hourly Data Report for June 05, 2021

CARIBOU POINT (AUT)
NOVA SCOTIA
Current Station Operator: ECCC - MSC

45°46'00.000" N
62°41'00.000" W
2.40 m
8200774
71415
WBK

Download Data

Hourly Data (June 2021)
Hourly Data Report for June 5, 2021
TIME
LST
Temp Definition
°C
Dew Point Definition
°C
Rel Hum Definition
%
Precip. Amount Definition
mm

Wind Dir Definition
10's deg

Wind Spd Definition
km/h
Visibility Definition
km
Stn Press Definition
kPa
Hmdx Definition


Wind Chill Definition


Weather Definition


00:00 16.6 15.6 94 0.0 23 4   100.78     LegendNANA
01:00 15.9 15.0 94 0.0 22 6   100.80     LegendNANA
02:00 15.8 14.8 94 0.0 22 10   100.78     LegendNANA
03:00 15.6 14.6 93 0.0 22 11   100.79     LegendNANA
04:00 14.8 13.9 94 0.0 21 9   100.75     LegendNANA
05:00 15.0 14.2 95 0.0 21 6   100.77     LegendNANA
06:00 16.4 14.7 90 0.0 23 6   100.84     LegendNANA
07:00 17.9 15.3 85 0.0 22 5   100.85     LegendNANA
08:00 19.2 15.9 81 0.0 20 12   100.85     LegendNANA
09:00 20.0 16.0 78 0.0 19 12   100.80 25   LegendNANA
10:00 22.0 16.8 72 0.0 21 9   100.75 27   LegendNANA
11:00 23.7 17.6 68 0.0 23 9   100.74 29   LegendNANA
12:00 26.9 14.8 48 0.0 25 15   100.66 31   LegendNANA
13:00 27.2 14.2 45 0.0 25 15   100.60 31   LegendNANA
14:00 27.9 14.4 44 0.0 25 20   100.53 32   LegendNANA
15:00 28.2 13.1 40 0.0 25 18   100.47 31   LegendNANA
16:00 27.0 14.9 48 0.0 25 19   100.47 31   LegendNANA
17:00 25.5 15.8 55 0.0 24 9   100.46 30   LegendNANA
18:00 24.5 15.9 59 0.0 23 10   100.46 29   LegendNANA
19:00 23.3 16.3 64 0.0 23 9   100.47 28   LegendNANA
20:00 21.7 15.4 68 0.0 22 12   100.50 26   LegendNANA
21:00 19.4 15.0 76 0.0 21 8   100.53     LegendNANA
22:00 18.6 14.3 76 0.0 21 7   100.51     LegendNANA
23:00 18.5 14.2 76 0.0 21 10   100.45     LegendNANA

Notes on Data Quality.

Legend

  • E = Estimated
  • M = Missing
  • NA = Not Available*
  • [empty] = Indicates an unobserved value
Date modified: